| time (UTC) | temp C | wind direction | speed KPH | gust KPH | rain 1hr cm | rain 24hr cm | rain mn cm | humidity % | barometer mb |
| 20260502152307 | 19 | 215 | 4.8 | 12.9 | 0.05 | 12.78 | 11.63 | 10 | 1010.4 |
| 20260502152008 | 19 | 177 | 3.2 | 9.7 | 0.05 | 12.78 | 11.63 | 10 | 1010.2 |
| 20260502151707 | 19 | 185 | 1.6 | 9.7 | 0.05 | 12.78 | 11.63 | 10 | 1010.1 |
| 20260502151408 | 19 | 196 | 3.2 | 11.3 | 0.05 | 12.78 | 11.63 | 10 | 1010.1 |
| 20260502151108 | 18 | 196 | 4.8 | 11.3 | 0.05 | 12.78 | 11.63 | 10 | 1010.2 |
| 20260502150808 | 18 | 210 | 0.0 | 12.9 | 0.05 | 12.78 | 11.63 | 10 | 1010.2 |
| 20260502150507 | 18 | 205 | 4.8 | 12.9 | 0.05 | 12.78 | 11.63 | 10 | 1010.2 |
| 20260502150208 | 18 | 216 | 4.8 | 14.5 | 0.05 | 12.78 | 11.63 | 10 | 1010.2 |
| 20260502130502 | 18 | 300 | 0.0 | 6.4 | 0.00 | 12.73 | 11.58 | 80 | 1009.9 |
| 20260502130203 | 18 | 283 | 1.6 | 6.4 | 0.00 | 12.73 | 11.58 | 92 | 1009.7 |
| 20260502123802 | 17 | 250 | 0.0 | 4.8 | 0.00 | 12.73 | 11.58 | 99 | 1010.0 |
| 20260502123501 | 17 | 258 | 0.0 | 4.8 | 0.00 | 12.73 | 11.58 | 99 | 1010.0 |
| 20260502123201 | 17 | 262 | 0.0 | 4.8 | 0.00 | 12.73 | 11.58 | 99 | 1010.2 |
| 20260502122902 | 17 | 242 | 0.0 | 4.8 | 0.00 | 12.73 | 11.58 | 99 | 1010.0 |
| 20260502122601 | 17 | 207 | 0.0 | 4.8 | 0.00 | 12.73 | 11.58 | 99 | 1010.1 |
| 20260502122301 | 17 | 188 | 0.0 | 4.8 | 0.00 | 12.73 | 11.58 | 99 | 1009.9 |
| 20260502122002 | 17 | 190 | 0.0 | 4.8 | 0.00 | 12.73 | 11.58 | 99 | 1009.7 |
| 20260502121700 | 17 | 198 | 0.0 | 4.8 | 0.00 | 12.73 | 11.58 | 99 | 1009.7 |
| 20260502121400 | 17 | 196 | 0.0 | 4.8 | 0.00 | 12.73 | 11.58 | 99 | 1009.6 |
| 20260502121101 | 17 | 201 | 0.0 | 3.2 | 0.00 | 12.73 | 11.58 | 99 | 1009.7 |
| 20260502120801 | 17 | 213 | 0.0 | 4.8 | 0.00 | 12.73 | 11.58 | 99 | 1009.5 |
| 20260502120501 | 17 | 223 | 0.0 | 6.4 | 0.00 | 12.73 | 11.58 | 99 | 1009.4 |
| 20260502120159 | 17 | 234 | 0.0 | 6.4 | 0.00 | 12.73 | 11.58 | 99 | 1009.2 |
| 20260502115901 | 17 | 244 | 0.0 | 6.4 | 0.00 | 12.73 | 11.58 | 99 | 1009.2 |
| 20260502115600 | 17 | 233 | 1.6 | 6.4 | 0.00 | 12.73 | 11.58 | 99 | 1009.2 |
| 20260502115300 | 17 | 183 | 0.0 | 4.8 | 0.00 | 12.73 | 11.58 | 99 | 1009.0 |
| 20260502114959 | 17 | 164 | 0.0 | 4.8 | 0.00 | 12.73 | 11.58 | 99 | 1008.9 |
| 20260502114701 | 17 | 166 | 1.6 | 4.8 | 0.00 | 12.73 | 11.58 | 99 | 1008.7 |
| 20260502114359 | 17 | 152 | 0.0 | 6.4 | 0.00 | 12.73 | 11.58 | 99 | 1008.7 |
| 20260502114100 | 17 | 144 | 0.0 | 6.4 | 0.00 | 12.73 | 11.58 | 99 | 1008.6 |
| 20260502113759 | 17 | 47 | 0.0 | 8.0 | 0.00 | 12.73 | 11.58 | 99 | 1008.5 |
| 20260502113458 | 17 | 14 | 1.6 | 9.7 | 0.00 | 12.73 | 11.58 | 99 | 1008.2 |
| 20260502113200 | 17 | 218 | 1.6 | 11.3 | 0.00 | 12.73 | 11.58 | 99 | 1008.2 |
| 20260502112900 | 17 | 227 | 0.0 | 11.3 | 0.00 | 12.73 | 11.58 | 99 | 1008.2 |
| 20260502112559 | 17 | 266 | 3.2 | 11.3 | 0.00 | 12.73 | 11.58 | 99 | 1008.2 |
| 20260502112258 | 17 | 341 | 4.8 | 11.3 | 0.00 | 12.73 | 11.58 | 99 | 1008.2 |
| 20260502111958 | 17 | 346 | 1.6 | 11.3 | 0.00 | 12.73 | 11.58 | 99 | 1008.2 |
| 20260502111657 | 17 | 356 | 0.0 | 11.3 | 0.00 | 12.73 | 11.58 | 99 | 1008.1 |
| 20260502111357 | 17 | 349 | 3.2 | 11.3 | 0.00 | 12.73 | 11.58 | 99 | 1008.0 |
| 20260502111058 | 17 | 354 | 4.8 | 11.3 | 0.00 | 12.73 | 11.58 | 99 | 1007.7 |
| 20260502110757 | 17 | 295 | 1.6 | 9.7 | 0.00 | 12.73 | 11.58 | 99 | 1007.7 |
| 20260502110458 | 17 | 317 | 1.6 | 9.7 | 0.00 | 12.73 | 11.58 | 99 | 1007.6 |
| 20260502110157 | 17 | 258 | 3.2 | 8.0 | 0.00 | 12.73 | 11.58 | 99 | 1007.5 |
| 20260502105858 | 17 | 341 | 0.0 | 8.0 | 0.00 | 12.73 | 11.58 | 99 | 1007.4 |
| 20260502105557 | 17 | 319 | 0.0 | 8.0 | 0.00 | 12.73 | 11.58 | 99 | 1007.5 |
| 20260502105257 | 17 | 288 | 0.0 | 8.0 | 0.00 | 12.73 | 11.58 | 99 | 1007.4 |
| 20260502104958 | 17 | 189 | 1.6 | 8.0 | 0.00 | 12.73 | 11.58 | 99 | 1007.4 |
| 20260502104657 | 17 | 147 | 3.2 | 8.0 | 0.00 | 12.73 | 11.58 | 99 | 1007.2 |
| 20260502104356 | 17 | 85 | 0.0 | 9.7 | 0.00 | 12.73 | 11.58 | 99 | 1007.2 |
| 20260502104058 | 17 | 113 | 1.6 | 9.7 | 0.00 | 12.73 | 11.58 | 99 | 1007.2 |
| 20260502103757 | 17 | 5 | 0.0 | 9.7 | 0.00 | 12.73 | 11.58 | 99 | 1007.0 |
| 20260502103456 | 17 | 268 | 0.0 | 9.7 | 0.00 | 12.73 | 11.58 | 99 | 1006.7 |
| 20260502103157 | 17 | 294 | 0.0 | 9.7 | 0.00 | 12.73 | 11.58 | 99 | 1006.7 |
| 20260502102857 | 17 | 305 | 0.0 | 11.3 | 0.00 | 12.73 | 11.58 | 99 | 1006.7 |
| 20260502102557 | 17 | 316 | 0.0 | 11.3 | 0.00 | 12.73 | 11.58 | 99 | 1006.7 |
| 20260502102256 | 17 | 332 | 0.0 | 11.3 | 0.00 | 12.73 | 11.58 | 99 | 1006.7 |
| 20260502101957 | 17 | 331 | 4.8 | 17.7 | 0.00 | 12.73 | 11.58 | 99 | 1006.7 |
| 20260502101655 | 17 | 318 | 0.0 | 17.7 | 0.00 | 12.73 | 11.58 | 99 | 1006.5 |
| 20260502101356 | 17 | 323 | 1.6 | 17.7 | 0.00 | 12.73 | 11.58 | 99 | 1006.4 |
| 20260502101056 | 17 | 327 | 4.8 | 17.7 | 0.00 | 12.73 | 11.58 | 99 | 1006.4 |
| 20260502100755 | 17 | 348 | 0.0 | 9.7 | 0.00 | 12.73 | 11.58 | 99 | 1006.2 |
| 20260502100456 | 17 | 340 | 0.0 | 11.3 | 0.00 | 12.73 | 11.58 | 99 | 1006.4 |
| 20260502100155 | 17 | 329 | 3.2 | 17.7 | 0.00 | 12.73 | 11.58 | 99 | 1006.4 |
| 20260502091353 | 17 | 345 | 3.2 | 14.5 | 0.00 | 12.73 | 11.58 | 99 | 1005.6 |
| 20260502091055 | 16 | 315 | 3.2 | 14.5 | 0.05 | 12.73 | 11.58 | 99 | 1006.1 |
| 20260502090754 | 16 | 299 | 3.2 | 11.3 | 0.05 | 12.73 | 11.58 | 99 | 1006.5 |
| 20260502090453 | 16 | 284 | 0.0 | 9.7 | 0.05 | 12.73 | 11.58 | 99 | 1006.2 |
| 20260502090154 | 16 | 293 | 0.0 | 9.7 | 0.05 | 12.73 | 11.58 | 99 | 1005.5 |
| 20260502071350 | 16 | 46 | 12.9 | 27.4 | 1.07 | 12.27 | 11.15 | 99 | 1007.1 |
| 20260502071050 | 16 | 52 | 9.7 | 20.9 | 1.07 | 12.22 | 11.07 | 99 | 1006.9 |
| 20260502070749 | 16 | 34 | 8.0 | 14.5 | 1.12 | 12.14 | 11.02 | 99 | 1007.0 |
| 20260502070450 | 16 | 42 | 4.8 | 17.7 | 1.19 | 12.09 | 10.95 | 99 | 1007.2 |
| 20260502070149 | 16 | 40 | 6.4 | 17.7 | 1.32 | 12.01 | 10.90 | 99 | 1007.6 |
| 20260502065851 | 16 | 32 | 8.0 | 17.7 | 1.37 | 11.96 | 10.82 | 99 | 1007.6 |
| 20260502065550 | 16 | 17 | 8.0 | 19.3 | 1.45 | 11.96 | 10.82 | 99 | 1007.7 |
| 20260502065249 | 16 | 5 | 9.7 | 19.3 | 1.37 | 11.89 | 10.77 | 99 | 1007.6 |
| 20260502064950 | 16 | 356 | 4.8 | 19.3 | 1.45 | 11.89 | 10.77 | 99 | 1007.7 |
| 20260502064650 | 16 | 13 | 14.5 | 19.3 | 1.45 | 11.84 | 10.69 | 99 | 1007.6 |
| 20260502064349 | 16 | 40 | 4.8 | 19.3 | 1.45 | 11.76 | 10.64 | 99 | 1007.7 |
| 20260502064049 | 16 | 42 | 1.6 | 17.7 | 1.50 | 11.71 | 10.57 | 99 | 1007.9 |
| 20260502063748 | 16 | 37 | 0.0 | 17.7 | 1.50 | 11.71 | 10.57 | 99 | 1008.0 |
| 20260502063448 | 16 | 35 | 9.7 | 17.7 | 1.45 | 11.63 | 10.52 | 99 | 1008.1 |
| 20260502063149 | 16 | 21 | 4.8 | 11.3 | 1.45 | 11.58 | 10.44 | 99 | 1007.9 |
| 20260502062848 | 16 | 42 | 0.0 | 9.7 | 1.37 | 11.46 | 10.31 | 99 | 1008.2 |
| 20260502062549 | 16 | 41 | 0.0 | 9.7 | 1.45 | 11.46 | 10.31 | 99 | 1008.2 |
| 20260502062249 | 16 | 44 | 4.8 | 9.7 | 1.45 | 11.38 | 10.26 | 99 | 1008.2 |
| 20260502061948 | 16 | 57 | 3.2 | 9.7 | 1.37 | 11.33 | 10.19 | 99 | 1008.2 |
| 20260502061649 | 16 | 92 | 6.4 | 9.7 | 1.37 | 11.25 | 10.13 | 99 | 1008.6 |
| 20260502061349 | 16 | 156 | 4.8 | 9.7 | 1.32 | 11.20 | 10.06 | 99 | 1008.6 |
| 20260502061048 | 16 | 175 | 0.0 | 9.7 | 1.32 | 11.15 | 10.01 | 99 | 1009.0 |
| 20260502060747 | 16 | 66 | 1.6 | 14.5 | 1.19 | 10.95 | 9.80 | 99 | 1008.9 |
| 20260502060448 | 16 | 45 | 0.0 | 14.5 | 1.07 | 10.77 | 9.63 | 99 | 1008.9 |
| 20260502060148 | 16 | 49 | 3.2 | 14.5 | 0.99 | 10.69 | 9.58 | 99 | 1008.7 |
| 20260502055848 | 16 | 351 | 4.8 | 9.7 | 0.99 | 10.57 | 9.45 | 99 | 1008.5 |
| 20260502055547 | 16 | 38 | 1.6 | 9.7 | 1.07 | 10.52 | 9.37 | 99 | 1008.4 |
| 20260502055247 | 16 | 13 | 3.2 | 9.7 | 1.32 | 10.52 | 9.37 | 99 | 1008.5 |
| 20260502054948 | 16 | 59 | 0.0 | 9.7 | 1.37 | 10.44 | 9.32 | 99 | 1008.2 |
| 20260502054647 | 16 | 49 | 1.6 | 9.7 | 1.63 | 10.39 | 9.25 | 99 | 1008.1 |
| 20260502054347 | 16 | 83 | 1.6 | 6.4 | 1.80 | 10.31 | 9.19 | 99 | 1008.2 |
| 20260502054046 | 16 | 97 | 0.0 | 6.4 | 1.93 | 10.19 | 9.07 | 99 | 1008.5 |
| 20260502053747 | 16 | 126 | 0.0 | 6.4 | 2.51 | 10.19 | 9.07 | 99 | 1008.6 |
| 20260502053447 | 16 | 139 | 1.6 | 6.4 | 2.57 | 10.19 | 9.07 | 99 | 1008.4 |
| 20260502053146 | 16 | 140 | 1.6 | 4.8 | 2.69 | 10.13 | 8.99 | 99 | 1008.5 |
| 20260502052847 | 16 | 134 | 0.0 | 4.8 | 2.77 | 10.06 | 8.94 | 99 | 1008.7 |
| 20260502052546 | 16 | 141 | 1.6 | 4.8 | 2.82 | 10.01 | 8.86 | 99 | 1008.6 |
| 20260502052247 | 16 | 146 | 1.6 | 4.8 | 2.90 | 9.93 | 8.81 | 99 | 1008.6 |
| 20260502051946 | 16 | 185 | 0.0 | 4.8 | 2.95 | 9.93 | 8.81 | 99 | 1008.7 |
| 20260502051647 | 16 | 152 | 1.6 | 6.4 | 2.95 | 9.88 | 8.74 | 99 | 1008.9 |
| 20260502051346 | 16 | 132 | 0.0 | 6.4 | 3.02 | 9.88 | 8.74 | 99 | 1008.9 |
| 20260502045324 | 16 | 128 | 0.0 | 9.7 | 3.84 | 9.32 | 8.18 | 99 | 1008.7 |
| 20260502045023 | 16 | 183 | 1.6 | 9.7 | 3.84 | 9.07 | 7.92 | 99 | 1008.5 |
| 20260502044725 | 16 | 144 | 1.6 | 14.5 | 3.76 | 8.81 | 7.67 | 99 | 1008.9 |
| 20260502044424 | 16 | 159 | 3.2 | 14.5 | 3.71 | 8.48 | 7.37 | 99 | 1009.5 |
| 20260502044125 | 15 | 133 | 4.8 | 14.5 | 3.71 | 8.23 | 7.11 | 99 | 1009.1 |
| 20260502043824 | 16 | 141 | 4.8 | 19.3 | 3.38 | 7.80 | 6.65 | 99 | 1008.2 |
| 20260502043523 | 16 | 137 | 8.0 | 19.3 | 3.33 | 7.62 | 6.48 | 99 | 1008.7 |
| 20260502043224 | 16 | 135 | 6.4 | 19.3 | 3.20 | 7.42 | 6.30 | 99 | 1008.6 |
| 20260502042923 | 16 | 176 | 9.7 | 14.5 | 3.33 | 7.37 | 6.22 | 99 | 1008.4 |
| 20260502042625 | 16 | 187 | 4.8 | 16.1 | 3.33 | 7.16 | 6.05 | 99 | 1008.2 |
| 20260502042324 | 15 | 71 | 3.2 | 16.1 | 3.63 | 7.04 | 5.92 | 99 | 1008.1 |
| 20260502042024 | 16 | 66 | 3.2 | 16.1 | 3.89 | 6.99 | 5.84 | 99 | 1007.7 |
| 20260502041722 | 17 | 68 | 6.4 | 16.1 | 3.96 | 6.91 | 5.79 | 99 | 1007.6 |
| 20260502041422 | 15 | 92 | 3.2 | 16.1 | 4.09 | 6.91 | 5.79 | 99 | 1007.7 |
| 20260502041123 | 17 | 82 | 4.8 | 16.1 | 4.01 | 6.78 | 5.66 | 99 | 1007.7 |
| 20260502040823 | 16 | 52 | 4.8 | 16.1 | 4.27 | 6.65 | 5.54 | 99 | 1007.7 |
| 20260502040546 | 16 | 38 | 9.7 | 16.1 | 4.39 | 6.53 | 5.41 | 99 | 1007.7 |
| 20260502040248 | 16 | 44 | 1.6 | 16.1 | 4.60 | 6.35 | 5.21 | 99 | 1008.0 |
| 20260502035947 | 17 | 81 | 11.3 | 16.1 | 4.90 | 6.05 | 4.90 | 99 | 1008.1 |
| 20260502035647 | 15 | 131 | 4.8 | 16.1 | 4.90 | 5.71 | 4.60 | 100 | 1008.4 |
| 20260502035346 | 16 | 163 | 4.8 | 16.1 | 4.72 | 5.46 | 4.34 | 93 | 1008.2 |
| 20260502035047 | 16 | 183 | 1.6 | 14.5 | 4.47 | 5.21 | 4.09 | 89 | 1008.0 |
| 20260502034745 | 17 | 140 | 9.7 | 14.5 | 4.34 | 5.03 | 3.89 | 87 | 1007.7 |
| 20260502034446 | 16 | 108 | 8.0 | 17.7 | 3.96 | 4.65 | 3.51 | 85 | 1007.7 |
| 20260502034147 | 16 | 99 | 0.0 | 19.3 | 3.89 | 4.52 | 3.38 | 82 | 1008.1 |
| 20260502033846 | 16 | 118 | 4.8 | 22.5 | 3.89 | 4.39 | 3.25 | 79 | 1007.9 |
| 20260502033545 | 16 | 129 | 11.3 | 22.5 | 3.84 | 4.27 | 3.15 | 76 | 1007.7 |
| 20260502033245 | 16 | 135 | 9.7 | 22.5 | 3.71 | 4.14 | 3.02 | 71 | 1008.0 |
| 20260502032946 | 16 | 145 | 14.5 | 22.5 | 3.63 | 4.01 | 2.90 | 65 | 1007.9 |
| 20260502032645 | 16 | 129 | 11.3 | 19.3 | 3.38 | 3.76 | 2.64 | 58 | 1008.2 |
| 20260502032345 | 16 | 95 | 4.8 | 19.3 | 3.02 | 3.38 | 2.26 | 51 | 1008.4 |
| 20260502032046 | 16 | 88 | 14.5 | 19.3 | 2.69 | 3.07 | 1.93 | 43 | 1008.2 |
| 20260502031746 | 16 | 106 | 0.0 | 19.3 | 2.57 | 2.95 | 1.80 | 37 | 1009.2 |
| 20260502031446 | 16 | 148 | 6.4 | 27.4 | 2.44 | 2.82 | 1.68 | 32 | 1008.5 |
| 20260502031145 | 16 | 169 | 9.7 | 27.4 | 2.26 | 2.64 | 1.50 | 24 | 1008.4 |
| 20260502030844 | 16 | 181 | 8.0 | 27.4 | 2.01 | 2.39 | 1.24 | 20 | 1008.7 |
| 20260502030546 | 16 | 195 | 14.5 | 33.8 | 1.63 | 2.01 | 0.86 | 17 | 1009.0 |
| 20260502030245 | 16 | 209 | 4.8 | 33.8 | 0.99 | 1.37 | 0.23 | 14 | 1009.0 |
| 20260502025944 | 17 | 187 | 4.8 | 33.8 | 0.61 | 0.99 | 0.99 | 14 | 1009.0 |
| 20260502025644 | 17 | 150 | 24.1 | 33.8 | 0.43 | 0.81 | 0.81 | 15 | 1008.2 |
| 20260502025345 | 17 | 130 | 12.9 | 24.1 | 0.36 | 0.74 | 0.74 | 14 | 1007.7 |
| 20260502025044 | 17 | 91 | 11.3 | 22.5 | 0.30 | 0.69 | 0.69 | 13 | 1008.0 |
| 20260502024745 | 17 | 101 | 9.7 | 22.5 | 0.30 | 0.69 | 0.69 | 11 | 1008.2 |
| 20260502024443 | 17 | 206 | 3.2 | 24.1 | 0.30 | 0.69 | 0.69 | 10 | 1008.1 |
| 20260502024145 | 17 | 186 | 6.4 | 24.1 | 0.23 | 0.61 | 0.61 | 10 | 1008.4 |
| 20260502023845 | 17 | 196 | 4.8 | 24.1 | 0.10 | 0.48 | 0.48 | 10 | 1008.2 |
| 20260502023544 | 17 | 196 | 9.7 | 24.1 | 0.05 | 0.43 | 0.43 | 10 | 1007.7 |
| 20260502023243 | 18 | 211 | 4.8 | 14.5 | 0.05 | 0.43 | 0.43 | 10 | 1008.0 |
| 20260502022944 | 18 | 202 | 9.7 | 14.5 | 0.00 | 0.36 | 0.36 | 10 | 1008.2 |
| 20260502022644 | 18 | 210 | 6.4 | 14.5 | 0.00 | 0.36 | 0.36 | 10 | 1008.5 |
| 20260502022344 | 18 | 201 | 3.2 | 14.5 | 0.00 | 0.36 | 0.36 | 10 | 1008.2 |
| 20260502022043 | 18 | 114 | 3.2 | 19.3 | 0.00 | 0.36 | 0.36 | 10 | 1008.0 |
| 20260502021744 | 18 | 70 | 0.0 | 19.3 | 0.00 | 0.36 | 0.36 | 10 | 1007.7 |
| 20260502021443 | 18 | 70 | 4.8 | 19.3 | 0.00 | 0.36 | 0.36 | 10 | 1007.1 |
| 20260502021142 | 18 | 97 | 9.7 | 19.3 | 0.00 | 0.36 | 0.36 | 10 | 1007.2 |
| 20260502020844 | 18 | 116 | 1.6 | 19.3 | 0.00 | 0.36 | 0.36 | 10 | 1007.0 |
| 20260502020542 | 18 | 152 | 8.0 | 30.6 | 0.00 | 0.36 | 0.36 | 10 | 1007.4 |
| 20260502020242 | 18 | 185 | 4.8 | 35.4 | 0.00 | 0.36 | 0.36 | 10 | 1007.2 |
| 20260502015942 | 18 | 192 | 3.2 | 35.4 | 0.00 | 0.36 | 0.36 | 10 | 1007.5 |
| 20260502015642 | 18 | 197 | 4.8 | 35.4 | 0.00 | 0.36 | 0.36 | 10 | 1007.9 |
| 20260502015342 | 18 | 185 | 8.0 | 29.0 | 0.00 | 0.36 | 0.36 | 10 | 1008.0 |
| 20260502015041 | 18 | 185 | 4.8 | 9.7 | 0.00 | 0.36 | 0.36 | 10 | 1007.5 |
| 20260502014743 | 18 | 217 | 4.8 | 9.7 | 0.00 | 0.36 | 0.36 | 10 | 1007.1 |
| 20260502014441 | 18 | 259 | 0.0 | 9.7 | 0.00 | 0.36 | 0.36 | 10 | 1006.7 |
| 20260502014143 | 18 | 355 | 0.0 | 9.7 | 0.00 | 0.36 | 0.36 | 10 | 1006.6 |
| 20260502013842 | 18 | 29 | 4.8 | 9.7 | 0.00 | 0.36 | 0.36 | 11 | 1006.7 |
| 20260502013541 | 18 | 39 | 0.0 | 11.3 | 0.00 | 0.36 | 0.36 | 11 | 1006.6 |
| 20260502013241 | 18 | 38 | 4.8 | 11.3 | 0.00 | 0.36 | 0.36 | 12 | 1006.7 |
| 20260502012942 | 18 | 49 | 4.8 | 11.3 | 0.00 | 0.36 | 0.36 | 13 | 1006.5 |
| 20260502012642 | 18 | 52 | 4.8 | 11.3 | 0.00 | 0.36 | 0.36 | 13 | 1006.5 |
| 20260502012341 | 18 | 70 | 1.6 | 14.5 | 0.00 | 0.36 | 0.36 | 14 | 1006.6 |
| 20260502012040 | 18 | 63 | 0.0 | 14.5 | 0.00 | 0.36 | 0.36 | 14 | 1006.7 |
| 20260502011741 | 18 | 63 | 4.8 | 14.5 | 0.00 | 0.36 | 0.36 | 15 | 1006.7 |
| 20260502011442 | 18 | 67 | 4.8 | 14.5 | 0.00 | 0.36 | 0.36 | 16 | 1006.7 |
| 20260502011141 | 18 | 57 | 3.2 | 14.5 | 0.00 | 0.36 | 0.36 | 17 | 1006.7 |
| 20260502010840 | 18 | 57 | 4.8 | 14.5 | 0.00 | 0.36 | 0.36 | 17 | 1006.7 |
| 20260502010541 | 18 | 41 | 3.2 | 14.5 | 0.00 | 0.36 | 0.36 | 18 | 1006.7 |
| 20260502010240 | 18 | 57 | 8.0 | 14.5 | 0.00 | 0.36 | 0.36 | 19 | 1006.9 |
| 20260502005940 | 18 | 37 | 3.2 | 9.7 | 0.00 | 0.36 | 0.36 | 20 | 1007.0 |
| 20260502005641 | 18 | 66 | 0.0 | 11.3 | 0.00 | 0.36 | 0.36 | 20 | 1006.7 |
| 20260502005341 | 18 | 33 | 1.6 | 11.3 | 0.00 | 0.36 | 0.36 | 20 | 1006.7 |
| 20260502005040 | 18 | 25 | 0.0 | 12.9 | 0.00 | 0.36 | 0.36 | 21 | 1006.7 |
| 20260502004739 | 18 | 29 | 3.2 | 12.9 | 0.00 | 0.36 | 0.36 | 21 | 1006.7 |
| 20260502004440 | 18 | 19 | 4.8 | 12.9 | 0.00 | 0.36 | 0.36 | 22 | 1006.9 |
| 20260502004139 | 18 | 17 | 6.4 | 12.9 | 0.00 | 0.36 | 0.36 | 22 | 1007.0 |
| 20260502003841 | 18 | 25 | 1.6 | 12.9 | 0.00 | 0.36 | 0.36 | 22 | 1007.0 |
| 20260502003539 | 18 | 32 | 3.2 | 9.7 | 0.00 | 0.36 | 0.36 | 21 | 1006.9 |
| 20260502003239 | 18 | 59 | 1.6 | 9.7 | 0.05 | 0.36 | 0.36 | 21 | 1006.9 |
| 20260502002940 | 18 | 98 | 4.8 | 9.7 | 0.10 | 0.36 | 0.36 | 21 | 1006.9 |
| 20260502002639 | 18 | 124 | 4.8 | 9.7 | 0.18 | 0.36 | 0.36 | 20 | 1007.1 |
| 20260502002339 | 18 | 129 | 1.6 | 9.7 | 0.30 | 0.36 | 0.36 | 19 | 1007.2 |
| 20260502002040 | 18 | 134 | 4.8 | 9.7 | 0.30 | 0.36 | 0.36 | 18 | 1007.2 |
| 20260502001739 | 18 | 131 | 3.2 | 6.4 | 0.36 | 0.36 | 0.36 | 17 | 1007.2 |
| 20260502001440 | 18 | 135 | 0.0 | 6.4 | 0.36 | 0.36 | 0.36 | 15 | 1007.2 |
| 20260502001138 | 18 | 135 | 1.6 | 6.4 | 0.36 | 0.36 | 0.36 | 14 | 1007.2 |
| 20260502000840 | 18 | 144 | 3.2 | 6.4 | 0.36 | 0.36 | 0.36 | 13 | 1007.4 |
| 20260502000540 | 18 | 146 | 1.6 | 6.4 | 0.36 | 0.36 | 0.36 | 11 | 1007.4 |
| 20260502000240 | 18 | 144 | 0.0 | 6.4 | 0.36 | 0.36 | 0.36 | 10 | 1007.2 |
| 20260501235938 | 18 | 137 | 1.6 | 8.0 | 0.36 | 0.36 | 0.36 | 10 | 1007.2 |
| 20260501235639 | 18 | 135 | 4.8 | 8.0 | 0.36 | 0.36 | 0.36 | 10 | 1007.2 |
| 20260501235339 | 18 | 138 | 3.2 | 8.0 | 0.36 | 0.36 | 0.36 | 10 | 1007.0 |
| 20260501235038 | 18 | 130 | 3.2 | 9.7 | 0.36 | 0.36 | 0.36 | 10 | 1007.1 |
| 20260501234739 | 18 | 115 | 3.2 | 9.7 | 0.36 | 0.36 | 0.36 | 10 | 1006.7 |
| 20260501234439 | 18 | 104 | 3.2 | 9.7 | 0.36 | 0.36 | 0.36 | 10 | 1006.7 |
| 20260501234138 | 18 | 94 | 4.8 | 9.7 | 0.36 | 0.36 | 0.36 | 10 | 1006.7 |
| 20260501233837 | 18 | 96 | 4.8 | 9.7 | 0.36 | 0.36 | 0.36 | 10 | 1006.7 |
| 20260501233539 | 18 | 125 | 4.8 | 8.0 | 0.36 | 0.36 | 0.36 | 10 | 1006.7 |
| 20260501233238 | 18 | 156 | 3.2 | 8.0 | 0.30 | 0.30 | 0.30 | 10 | 1007.1 |
| 20260501232939 | 18 | 146 | 0.0 | 8.0 | 0.18 | 0.18 | 0.18 | 10 | 1007.2 |
| 20260501232638 | 18 | 166 | 3.2 | 9.7 | 0.18 | 0.18 | 0.18 | 10 | 1007.2 |
| 20260501232337 | 18 | 171 | 0.0 | 9.7 | 0.05 | 0.05 | 0.05 | 10 | 1007.1 |
| 20260501232039 | 18 | 190 | 1.6 | 11.3 | 0.05 | 0.05 | 0.05 | 10 | 1007.1 |
| 20260501231738 | 19 | 168 | 3.2 | 11.3 | 0.00 | 0.00 | 0.00 | 10 | 1007.0 |
| 20260501231437 | 19 | 171 | 4.8 | 11.3 | 0.00 | 0.00 | 0.00 | 10 | 1007.1 |
| 20260501231138 | 19 | 171 | 4.8 | 11.3 | 0.00 | 0.00 | 0.00 | 10 | 1007.2 |
| 20260501230838 | 20 | 177 | 4.8 | 9.7 | 0.00 | 0.00 | 0.00 | 10 | 1007.1 |
| 20260501230538 | 20 | 173 | 0.0 | 9.7 | 0.00 | 0.00 | 0.00 | 10 | 1007.2 |
| 20260501230237 | 20 | 156 | 4.8 | 9.7 | 0.00 | 0.00 | 0.00 | 10 | 1007.1 |
| 20260501225937 | 20 | 149 | 0.0 | 9.7 | 0.00 | 0.00 | 0.00 | 10 | 1007.2 |
| 20260501225636 | 20 | 145 | 3.2 | 9.7 | 0.00 | 0.00 | 0.00 | 10 | 1007.0 |
| 20260501225337 | 20 | 157 | 4.8 | 12.9 | 0.00 | 0.00 | 0.00 | 10 | 1007.0 |
| 20260501225036 | 21 | 166 | 0.0 | 12.9 | 0.00 | 0.00 | 0.00 | 10 | 1007.0 |
| 20260501224738 | 21 | 168 | 1.6 | 12.9 | 0.00 | 0.00 | 0.00 | 10 | 1006.9 |
| 20260501224437 | 21 | 170 | 6.4 | 12.9 | 0.00 | 0.00 | 0.00 | 10 | 1006.7 |
| 20260501224136 | 21 | 162 | 3.2 | 9.7 | 0.00 | 0.00 | 0.00 | 10 | 1006.7 |
| 20260501223838 | 22 | 163 | 4.8 | 14.5 | 0.00 | 0.00 | 0.00 | 10 | 1006.7 |
| 20260501223537 | 22 | 160 | 3.2 | 14.5 | 0.00 | 0.00 | 0.00 | 10 | 1006.7 |
| 20260501223237 | 22 | 160 | 0.0 | 14.5 | 0.00 | 0.00 | 0.00 | 10 | 1006.7 |
| 20260501222936 | 22 | 155 | 0.0 | 14.5 | 0.00 | 0.00 | 0.00 | 10 | 1006.7 |
| 20260501222635 | 22 | 140 | 4.8 | 9.7 | 0.00 | 0.00 | 0.00 | 10 | 1006.7 |
| 20260501222337 | 23 | 141 | 3.2 | 6.4 | 0.00 | 0.00 | 0.00 | 10 | 1006.7 |
| 20260501222036 | 23 | 163 | 0.0 | 4.8 | 0.00 | 0.00 | 0.00 | 10 | 1006.7 |
| 20260501221735 | 23 | 154 | 1.6 | 9.7 | 0.00 | 0.00 | 0.00 | 10 | 1006.2 |
| 20260501221436 | 23 | 149 | 1.6 | 9.7 | 0.00 | 0.00 | 0.00 | 10 | 1006.4 |
| 20260501221135 | 23 | 128 | 0.0 | 9.7 | 0.00 | 0.00 | 0.00 | 10 | 1006.5 |
| 20260501220834 | 24 | 121 | 4.8 | 9.7 | 0.00 | 0.00 | 0.00 | 10 | 1006.5 |
| 20260501220536 | 24 | 135 | 0.0 | 4.8 | 0.00 | 0.00 | 0.00 | 10 | 1006.4 |
| 20260501220235 | 24 | 0 | 0.0 | 0.0 | 0.00 | 0.00 | 0.00 | 10 | 1006.4 |
| 20260501215934 | 24 | 181 | 0.0 | 0.0 | 0.00 | 0.00 | 0.00 | 10 | 1006.6 |
| 20260501215635 | 24 | 181 | 0.0 | 0.0 | 0.00 | 0.00 | 0.00 | 10 | 1006.5 |
| 20260501215335 | 24 | 181 | 0.0 | 0.0 | 0.00 | 0.00 | 0.00 | 10 | 1006.5 |
| 20260501215034 | 25 | 20 | 0.0 | 4.8 | 0.00 | 0.00 | 0.00 | 10 | 1006.5 |
| 20260501214736 | 25 | 283 | 0.0 | 4.8 | 0.00 | 0.00 | 0.00 | 10 | 1006.6 |
| 20260501214435 | 25 | 265 | 0.0 | 4.8 | 0.00 | 0.00 | 0.00 | 10 | 1006.5 |
| 20260501214134 | 25 | 293 | 0.0 | 6.4 | 0.00 | 0.00 | 0.00 | 10 | 1006.4 |
| 20260501213835 | 25 | 280 | 0.0 | 6.4 | 0.00 | 0.00 | 0.00 | 10 | 1006.5 |
| 20260501213533 | 25 | 331 | 0.0 | 6.4 | 0.00 | 0.00 | 0.00 | 10 | 1006.4 |
| 20260501213235 | 25 | 85 | 0.0 | 6.4 | 0.00 | 0.00 | 0.00 | 10 | 1006.5 |
| 20260501212934 | 25 | 87 | 0.0 | 8.0 | 0.00 | 0.00 | 0.00 | 10 | 1006.4 |
| 20260501212633 | 25 | 90 | 1.6 | 8.0 | 0.00 | 0.00 | 0.00 | 10 | 1006.5 |
| 20260501212334 | 25 | 131 | 0.0 | 8.0 | 0.00 | 0.00 | 0.00 | 10 | 1006.4 |
| 20260501212034 | 25 | 17 | 4.8 | 8.0 | 0.00 | 0.00 | 0.00 | 10 | 1006.2 |
| 20260501211733 | 25 | 11 | 0.0 | 6.4 | 0.00 | 0.00 | 0.00 | 10 | 1006.2 |
| 20260501211434 | 25 | 21 | 0.0 | 6.4 | 0.00 | 0.00 | 0.00 | 10 | 1006.2 |
| 20260501211133 | 25 | 37 | 3.2 | 6.4 | 0.00 | 0.00 | 0.00 | 10 | 1006.2 |
| 20260501210833 | 25 | 67 | 0.0 | 4.8 | 0.00 | 0.00 | 0.00 | 10 | 1006.2 |
| 20260501210534 | 25 | 270 | 0.0 | 6.4 | 0.00 | 0.00 | 0.00 | 10 | 1006.2 |
| 20260501210233 | 25 | 255 | 1.6 | 6.4 | 0.00 | 0.00 | 0.00 | 10 | 1006.2 |
| 20260501205933 | 25 | 261 | 0.0 | 6.4 | 0.00 | 0.00 | 0.00 | 10 | 1006.2 |
| 20260501205634 | 25 | 259 | 0.0 | 4.8 | 0.00 | 0.00 | 0.00 | 10 | 1006.1 |
| 20260501205333 | 25 | 283 | 0.0 | 6.4 | 0.00 | 0.00 | 0.00 | 10 | 1006.0 |
| 20260501205033 | 25 | 300 | 0.0 | 8.0 | 0.00 | 0.00 | 0.00 | 10 | 1006.1 |
| 20260501204733 | 26 | 327 | 0.0 | 8.0 | 0.00 | 0.00 | 0.00 | 10 | 1006.1 |
| 20260501204432 | 26 | 325 | 1.6 | 8.0 | 0.00 | 0.00 | 0.00 | 10 | 1006.0 |
| 20260501204133 | 26 | 327 | 3.2 | 8.0 | 0.00 | 0.00 | 0.00 | 10 | 1005.9 |
| 20260501203832 | 26 | 310 | 1.6 | 8.0 | 0.00 | 0.00 | 0.00 | 10 | 1006.1 |
| 20260501203531 | 26 | 287 | 3.2 | 8.0 | 0.00 | 0.00 | 0.00 | 10 | 1006.0 |
| 20260501203233 | 26 | 64 | 0.0 | 6.4 | 0.00 | 0.00 | 0.00 | 10 | 1005.9 |
| 20260501202931 | 26 | 80 | 3.2 | 9.7 | 0.00 | 0.00 | 0.00 | 10 | 1005.7 |
| 20260501202631 | 26 | 265 | 3.2 | 9.7 | 0.00 | 0.00 | 0.00 | 10 | 1005.9 |
| 20260501202331 | 26 | 307 | 3.2 | 14.5 | 0.00 | 0.00 | 0.00 | 10 | 1005.9 |
| 20260501202031 | 26 | 322 | 0.0 | 14.5 | 0.00 | 0.00 | 0.00 | 10 | 1006.0 |
| 20260501201732 | 26 | 337 | 1.6 | 14.5 | 0.00 | 0.00 | 0.00 | 10 | 1006.0 |
| 20260501201431 | 26 | 2 | 6.4 | 14.5 | 0.00 | 0.00 | 0.00 | 10 | 1005.9 |
| 20260501201131 | 26 | 348 | 1.6 | 9.7 | 0.00 | 0.00 | 0.00 | 10 | 1006.0 |
| 20260501200830 | 26 | 354 | 3.2 | 9.7 | 0.00 | 0.00 | 0.00 | 10 | 1005.7 |
| 20260501200532 | 26 | 349 | 0.0 | 9.7 | 0.00 | 0.00 | 0.00 | 10 | 1005.9 |
| 20260501200230 | 26 | 329 | 1.6 | 14.5 | 0.00 | 0.00 | 0.00 | 10 | 1006.0 |
| 20260501195930 | 26 | 328 | 1.6 | 14.5 | 0.00 | 0.00 | 0.00 | 10 | 1006.0 |
| 20260501195631 | 26 | 315 | 4.8 | 14.5 | 0.00 | 0.00 | 0.00 | 10 | 1006.0 |
| 20260501195331 | 27 | 305 | 4.8 | 14.5 | 0.00 | 0.00 | 0.00 | 10 | 1005.9 |
| 20260501195030 | 27 | 297 | 1.6 | 12.9 | 0.00 | 0.00 | 0.00 | 10 | 1005.7 |
| 20260501194731 | 27 | 10 | 3.2 | 19.3 | 0.00 | 0.00 | 0.00 | 10 | 1006.0 |
| 20260501194431 | 27 | 5 | 0.0 | 19.3 | 0.00 | 0.00 | 0.00 | 10 | 1005.9 |
| 20260501194130 | 27 | 358 | 4.8 | 19.3 | 0.00 | 0.00 | 0.00 | 10 | 1005.9 |
| 20260501193829 | 27 | 333 | 6.4 | 22.5 | 0.00 | 0.00 | 0.00 | 10 | 1005.7 |
| 20260501193529 | 27 | 318 | 3.2 | 22.5 | 0.00 | 0.00 | 0.00 | 10 | 1005.7 |
| 20260501193230 | 27 | 313 | 4.8 | 22.5 | 0.00 | 0.00 | 0.00 | 10 | 1005.7 |
| 20260501192930 | 27 | 307 | 8.0 | 22.5 | 0.00 | 0.00 | 0.00 | 10 | 1005.6 |
| 20260501192630 | 28 | 297 | 9.7 | 20.9 | 0.00 | 0.00 | 0.00 | 10 | 1005.5 |
| 20260501192329 | 28 | 317 | 4.8 | 30.6 | 0.00 | 0.00 | 0.00 | 10 | 1005.7 |
| 20260501192030 | 28 | 315 | 4.8 | 30.6 | 0.00 | 0.00 | 0.00 | 10 | 1005.7 |
| 20260501191730 | 28 | 299 | 4.8 | 30.6 | 0.00 | 0.00 | 0.00 | 10 | 1005.5 |
| 20260501191430 | 29 | 289 | 8.0 | 14.5 | 0.00 | 0.00 | 0.00 | 10 | 1005.7 |
| 20260501191129 | 29 | 297 | 8.0 | 14.5 | 0.00 | 0.00 | 0.00 | 10 | 1005.6 |
| 20260501190829 | 29 | 287 | 3.2 | 17.7 | 0.00 | 0.00 | 0.00 | 10 | 1005.5 |
| 20260501190528 | 28 | 274 | 4.8 | 20.9 | 0.00 | 0.00 | 0.00 | 10 | 1005.5 |
| 20260501190229 | 28 | 295 | 4.8 | 20.9 | 0.00 | 0.00 | 0.00 | 10 | 1005.6 |
| 20260501185929 | 28 | 298 | 9.7 | 20.9 | 0.00 | 0.00 | 0.00 | 10 | 1005.7 |
| 20260501185628 | 28 | 343 | 9.7 | 19.3 | 0.00 | 0.00 | 0.00 | 10 | 1005.5 |
| 20260501185329 | 29 | 30 | 8.0 | 19.3 | 0.00 | 0.00 | 0.00 | 10 | 1005.5 |
| 20260501185028 | 30 | 79 | 3.2 | 17.7 | 0.00 | 0.00 | 0.00 | 10 | 1005.4 |
| 20260501184727 | 30 | 68 | 4.8 | 17.7 | 0.00 | 0.00 | 0.00 | 10 | 1005.4 |
| 20260501184429 | 30 | 67 | 3.2 | 19.3 | 0.00 | 0.00 | 0.00 | 10 | 1005.4 |
| 20260501184128 | 29 | 326 | 3.2 | 25.7 | 0.00 | 0.00 | 0.00 | 10 | 1005.4 |
| 20260501183827 | 29 | 5 | 3.2 | 25.7 | 0.00 | 0.00 | 0.00 | 10 | 1005.5 |
| 20260501183529 | 29 | 10 | 8.0 | 25.7 | 0.00 | 0.00 | 0.00 | 10 | 1005.5 |
| 20260501183228 | 29 | 58 | 4.8 | 25.7 | 0.00 | 0.00 | 0.00 | 10 | 1005.5 |
| 20260501182927 | 29 | 3 | 3.2 | 19.3 | 0.00 | 0.00 | 0.00 | 10 | 1005.2 |
| 20260501182628 | 29 | 345 | 4.8 | 20.9 | 0.00 | 0.00 | 0.00 | 10 | 1005.5 |
| 20260501182328 | 28 | 336 | 3.2 | 20.9 | 0.00 | 0.00 | 0.00 | 10 | 1005.4 |
| 20260501182026 | 28 | 343 | 9.7 | 20.9 | 0.00 | 0.00 | 0.00 | 10 | 1005.5 |
| 20260501181727 | 28 | 343 | 4.8 | 20.9 | 0.00 | 0.00 | 0.00 | 10 | 1005.6 |
| 20260501181427 | 28 | 357 | 0.0 | 20.9 | 0.00 | 0.00 | 0.00 | 10 | 1005.5 |
| 20260501181127 | 28 | 6 | 9.7 | 20.9 | 0.00 | 0.00 | 0.00 | 10 | 1005.6 |
| 20260501180826 | 28 | 7 | 6.4 | 27.4 | 0.00 | 0.00 | 0.00 | 10 | 1005.6 |
| 20260501180528 | 28 | 8 | 4.8 | 27.4 | 0.00 | 0.00 | 0.00 | 10 | 1005.6 |
| 20260501180227 | 29 | 14 | 9.7 | 27.4 | 0.00 | 0.00 | 0.00 | 10 | 1005.7 |
| 20260501175926 | 29 | 34 | 9.7 | 27.4 | 0.00 | 0.00 | 0.00 | 10 | 1005.7 |
| 20260501175627 | 29 | 17 | 6.4 | 12.9 | 0.00 | 0.00 | 0.00 | 10 | 1005.7 |
| 20260501175327 | 29 | 316 | 4.8 | 20.9 | 0.00 | 0.00 | 0.00 | 10 | 1005.9 |
| 20260501175026 | 29 | 321 | 4.8 | 20.9 | 0.00 | 0.00 | 0.00 | 10 | 1006.0 |
| 20260501174725 | 28 | 332 | 3.2 | 20.9 | 0.00 | 0.00 | 0.00 | 10 | 1006.0 |
| 20260501174426 | 29 | 329 | 9.7 | 19.3 | 0.00 | 0.00 | 0.00 | 10 | 1006.1 |
| 20260501174126 | 29 | 3 | 8.0 | 14.5 | 0.00 | 0.00 | 0.00 | 10 | 1006.2 |
| 20260501173826 | 29 | 74 | 3.2 | 9.7 | 0.00 | 0.00 | 0.00 | 10 | 1006.2 |
| 20260501173525 | 29 | 37 | 1.6 | 14.5 | 0.00 | 0.00 | 0.00 | 10 | 1006.4 |
| 20260501173226 | 28 | 27 | 0.0 | 14.5 | 0.00 | 0.00 | 0.00 | 10 | 1006.2 |
| 20260501172926 | 28 | 33 | 0.0 | 14.5 | 0.00 | 0.00 | 0.00 | 10 | 1006.4 |
| 20260501172625 | 28 | 36 | 6.4 | 14.5 | 0.00 | 0.00 | 0.00 | 10 | 1006.5 |
| 20260501172324 | 28 | 24 | 4.8 | 14.5 | 0.00 | 0.00 | 0.00 | 10 | 1006.6 |
| 20260501172025 | 28 | 10 | 9.7 | 25.7 | 0.00 | 0.00 | 0.00 | 10 | 1006.5 |
| 20260501171725 | 28 | 351 | 3.2 | 25.7 | 0.00 | 0.00 | 0.00 | 10 | 1006.6 |
| 20260501171424 | 27 | 355 | 4.8 | 25.7 | 0.00 | 0.00 | 0.00 | 10 | 1006.6 |
| 20260501171125 | 27 | 352 | 4.8 | 20.9 | 0.00 | 0.00 | 0.00 | 10 | 1006.7 |
| 20260501170824 | 27 | 356 | 11.3 | 20.9 | 0.00 | 0.00 | 0.00 | 10 | 1006.7 |
| 20260501170525 | 28 | 77 | 8.0 | 19.3 | 0.00 | 0.00 | 0.00 | 10 | 1006.9 |
| 20260501170224 | 27 | 84 | 4.8 | 19.3 | 0.00 | 0.00 | 0.00 | 10 | 1006.9 |
| 20260501165925 | 28 | 351 | 4.8 | 19.3 | 0.00 | 0.00 | 0.00 | 10 | 1006.9 |
| 20260501165624 | 28 | 336 | 3.2 | 19.3 | 0.00 | 0.00 | 0.00 | 10 | 1007.0 |
| 20260501165325 | 28 | 349 | 4.8 | 19.3 | 0.00 | 0.00 | 0.00 | 10 | 1007.2 |
| 20260501165024 | 29 | 18 | 8.0 | 19.3 | 0.00 | 0.00 | 0.00 | 10 | 1007.4 |
| 20260501164723 | 28 | 49 | 9.7 | 19.3 | 0.00 | 0.00 | 0.00 | 10 | 1007.5 |
| 20260501164424 | 27 | 55 | 0.0 | 19.3 | 0.00 | 0.00 | 0.00 | 10 | 1007.6 |
| 20260501164125 | 27 | 55 | 6.4 | 22.5 | 0.00 | 0.00 | 0.00 | 10 | 1007.6 |
| 20260501163824 | 27 | 51 | 4.8 | 22.5 | 0.00 | 0.00 | 0.00 | 10 | 1007.5 |
| 20260501163523 | 27 | 298 | 6.4 | 22.5 | 0.00 | 0.00 | 0.00 | 10 | 1007.6 |
| 20260501163225 | 27 | 297 | 4.8 | 22.5 | 0.00 | 0.00 | 0.00 | 10 | 1007.7 |
| 20260501162923 | 27 | 309 | 4.8 | 19.3 | 0.00 | 0.00 | 0.00 | 10 | 1007.7 |
| 20260501162624 | 28 | 297 | 12.9 | 19.3 | 0.00 | 0.00 | 0.00 | 10 | 1007.9 |
| 20260501162323 | 28 | 305 | 6.4 | 20.9 | 0.00 | 0.00 | 0.00 | 10 | 1008.0 |
| 20260501162023 | 27 | 318 | 6.4 | 25.7 | 0.00 | 0.00 | 0.00 | 10 | 1008.1 |
| 20260501161724 | 27 | 332 | 0.0 | 25.7 | 0.00 | 0.00 | 0.00 | 10 | 1008.2 |
| 20260501161423 | 27 | 353 | 4.8 | 25.7 | 0.00 | 0.00 | 0.00 | 10 | 1008.2 |
| 20260501161124 | 27 | 356 | 14.5 | 25.7 | 0.00 | 0.00 | 0.00 | 10 | 1008.2 |
| 20260501160823 | 27 | 19 | 3.2 | 20.9 | 0.00 | 0.00 | 0.00 | 10 | 1008.2 |
| 20260501160547 | 27 | 350 | 6.4 | 19.3 | 0.00 | 0.00 | 0.00 | 10 | 1008.4 |
| 20260501160246 | 27 | 14 | 8.0 | 14.5 | 0.00 | 0.00 | 0.00 | 10 | 1008.4 |
| 20260501155947 | 27 | 14 | 4.8 | 14.5 | 0.00 | 0.00 | 0.00 | 10 | 1008.4 |
| 20260501155646 | 27 | 13 | 6.4 | 16.1 | 0.00 | 0.00 | 0.00 | 10 | 1008.6 |
| 20260501155346 | 27 | 1 | 4.8 | 16.1 | 0.00 | 0.00 | 0.00 | 10 | 1008.5 |
| 20260501155046 | 27 | 343 | 6.4 | 16.1 | 0.00 | 0.00 | 0.00 | 10 | 1008.7 |
| 20260501154746 | 27 | 345 | 4.8 | 17.7 | 0.00 | 0.00 | 0.00 | 10 | 1008.7 |
| 20260501154447 | 26 | 336 | 1.6 | 17.7 | 0.00 | 0.00 | 0.00 | 10 | 1008.7 |
| 20260501154145 | 26 | 336 | 8.0 | 17.7 | 0.00 | 0.00 | 0.00 | 10 | 1009.0 |
| 20260501153845 | 26 | 334 | 6.4 | 16.1 | 0.00 | 0.00 | 0.00 | 10 | 1009.0 |
| 20260501153546 | 26 | 327 | 4.8 | 16.1 | 0.00 | 0.00 | 0.00 | 10 | 1009.0 |
| 20260501153245 | 26 | 25 | 1.6 | 16.1 | 0.00 | 0.00 | 0.00 | 10 | 1009.1 |